Flagstaff Pulliam Airport
KFLG : now visible

Airfield :











YOU CAN JOIN US ON...

 
LOGIN :

Register | Disclaimer

   EN    FR    IT 

 









Legend :    VFR   Marginal VFR   IFR   Intensive IFR   Very Intensive IFR
Visi :
Ceiling :
>= 8 km
>= 3000ft
5 to 8 km
1000 to 3000 ft
1500m to 5 km
500 to 1000 ft
800 to 1500m
200 to 500 ft
< 800m
< 200 ft
Symbols :   Thunderstorms  Fog  Heavy snow  Heavy precipitations  Wind > 20 kt






- Airport Elevation : 7014 ft
- IATA code : FLG


KFLG - Flagstaff Pulliam

CURRENT METAR :
  • 240957Z AUTO 29003KT 10SM CLR 03/01 A3019 RMK AO2 SLP154 T00330006 TSNO

EXPIRED METARs :
  • 240857Z AUTO 29003KT 10SM CLR 06/02 A3020 RMK AO2 SLP151 T00560022 58006 TSNO
  • 240757Z AUTO 00000KT 10SM CLR 07/03 A3020 RMK AO2 SLP151 T00670028 TSNO

TAF KFLG
Valid from the 24 at 06:00 until the 25 at 06:00 UTC


240527Z 2406/2506 22005KT P6SM BKN200
FM241600 23009G15KT P6SM BKN250
FM241900 23015G25KT P6SM BKN200
FM250200 23010G16KT P6SM BKN200
KZAB FIR / North America



MET'MAP, your aeronautical weather chart ! - Copyright ORBIFLY December 2007 - Disclaimer

ORBIFLY MET'MAP TEAM :

Programming & Development : Alexandra Zaïnal
Concept & original design : Baudouin d'Aumeries
Assistance for programming : Marc-Olivier Méhu
Technical & hardware support : Manuel Goepfert

Contact : metmap@orbifly.com




SOURCES & CREDITS :

   NOAA       Earth
Advisory